Tracking 29034 objects as of 25-Jun-2024
HD Live streaming from Space Station
objects crossing your sky now

YAOGAN-36 05C

Track YAOGAN-36 05C now!
10-day predictions


NORAD ID: 57456
Int'l Code: 2023-106E
Perigee: 500.5 km
Apogee: 508.7 km
Inclination: 35.0 °
Period: 94.6 minutes
Semi major axis: 6875 km
RCS: Unknown
Launch date: July 26, 2023
Source: People's Republic of China (PRC)
Launch site: Xichang Space Center, China (XSC)
Your satellite tracking list
Your tracking list is empty




NASA's NSSDC Master Catalog

Two Line Element Set (TLE):
1 57456U 23106E   24176.70359717  .00016211  00000-0  67705-3 0  9997
2 57456  34.9964 281.0928 0005929   9.1553 350.9269 15.22782998 50891
Source of the keplerian elements: AFSPC